DMSP 5D-2 F13 DEB, 40403

Orbit data source: Space-Track

DMSP 5D-2 F13 DEB, 40403 is space debris in SSO originally from a launch on Fri, 24 Mar 1995 UTC launched from the Air Force Western Test Range (AFWTR). Debris objects in space refer to the collection of defunct objects orbiting the Earth. Examples of debris include non-operational satellites, rocket bodies, and fragments generated from explosions, collisions, or faulty payload assembly.

Loading next visibility...
Identifier
40403, 1995-015Q
Orbit
SSO
Country
Flag of USUS
Related business
Manufacturer
Unknown
Mission
Spacecraft
Bus & Motor
Unknown
Mass
Unknown
Launch date (UTC)
1995-03-24 (31 years ago)
Launch vehicle
Unknown
Launch site
Air Force Western Test Range (AFWTR)
Object type
Payload
Rocket body
Debris
Shape & HBR
Unknown shape, 0.1 m
Radar Cross Section
Small (<0.1 m²)

Expand to show TLE details & history
Last TLE update: 22 hours ago

TLE from 22 hours ago
0 DMSP 5D-2 F13 DEB
1 40403U 95015Q   25340.54464660  .00004380  00000-0  17054-2 0  9994
2 40403  98.6834   3.3760 0011957 225.4557 134.5649 14.30222077559237
Epoch: 2025-12-06T13:04Z
TLE epoch observation values (Epoch: 2025-12-06T13:04:17.466Z)
Latitude
-0.00005°
Longitude
91.73238°
Altitude
799.939 km
Speed
7.45 km/s
True Right ascension
00h 13m 30s
True Declination
0° 00' 00"
Sunlit
Object was in daylight at epoch
Visualization orbit readout
Latitude
Unknown
Longitude
Unknown
Altitude
Unknown
Speed
Unknown
Apparent Right ascension
Unknown
Apparent Declination
Unknown
Sunlit
N/A
Visualization observer readout
Local Sidereal Time
09:10:59
Azimuth
Unknown
Elevation
Unknown
Doppler factor
Unknown
Orbital elements
Apogee altitude
796.701 km
Perigee altitude
779.564 km
Semi-major axis
7,166.269 km
Eccentricity
0.0012
Inclination
98.6834°
RAAN
3.376°
Arg. of periapsis
225.4557°
True anomaly
134.66242°
Mean anomaly
134.5649°
Eccentric anomaly
134.61367°
Mean motion
3.5777 °/min
Orbital period
100.62 mins
BSTAR
0.0017054

Documentation

Showing up to 5 results
|